Leadville, CO

10:03 AM MST on December 10, 2016 (GMT -0700)
Lake County

Weather History for KLXV - May, 2013

Change the Weather History Date:

Wednesday, May 22, 2013

  Actual Average Record
Temperature  
Mean Temperature 42 °F -  
Max Temperature 60 °F 57 °F 71 °F (2005)
Min Temperature 24 °F 29 °F 20 °F (1977)
Degree Days  
Heating Degree Days 23 22  
Month to date heating degree days 603 563  
Since 1 July heating degree days 10573 10564  
Cooling Degree Days 0 0  
Month to date cooling degree days 0 0  
Year to date cooling degree days 0 0  
Moisture  
Dew Point 22 °F    
Average Humidity 49    
Maximum Humidity 81    
Minimum Humidity 17    
Precipitation  
Precipitation 0.00 in 0.02 in 0.28 in (2006)
Month to date precipitation 1.67 0.58  
Year to date precipitation 7.18 3.91  
Sea Level Pressure  
Sea Level Pressure 29.80 in    
Wind  
Wind Speed 5 mph (South)    
Max Wind Speed 22 mph    
Max Gust Speed 29 mph    
Visibility 10 miles    
Events      
T = Trace of Precipitation, MM = Missing Value Source: NWS Daily Summary

Daily Weather History Graph

Daily Weather History Graph

Search for Another Location

Airport or City:

Trip Planner

Search our weather history database for the weather conditions in past years. The results will help you decide how hot, cold, wet, or windy it might be!

Date:

Astronomy

May. 22, 2013 Rise Set
Actual Time 5:46 AM MDT 8:18 PM MDT
Civil Twilight 5:15 AM MDT 8:49 PM MDT
Nautical Twilight 4:37 AM MDT 9:27 PM MDT
Astronomical Twilight 3:54 AM MDT 10:10 PM MDT
Moon 5:44 PM MDT (5/22) 3:50 AM MDT (5/22)
Length of Visible Light 15h 33m
Length of Day
14h 32m
Waxing Gibbous, 92% of the Moon is Illuminated
May 22
Waxing Gibbous
May 24
Full
May 31
Last Quarter
Jun 8
New
Jun 16
First Quarter

Hourly Weather History & Observations

Time (MDT) Temp. Windchill Dew Point Humidity Pressure Visibility Wind Dir Wind Speed Gust Speed Precip Events Conditions
12:53 AM 32.0 °F 27.5 °F 23.0 °F 69% 29.86 in 10.0 mi East 4.6 mph - N/A   Clear
1:53 AM 30.0 °F 25.2 °F 21.9 °F 72% 29.84 in 10.0 mi East 4.6 mph - N/A   Clear
2:53 AM 28.9 °F 25.2 °F 23.0 °F 78% 29.85 in 10.0 mi NNE 3.5 mph - N/A   Clear
3:53 AM 26.1 °F - 21.9 °F 84% 29.86 in 10.0 mi Calm Calm - N/A   Clear
4:53 AM 30.0 °F - 21.9 °F 72% 29.81 in 10.0 mi Calm Calm - N/A   Clear
5:53 AM 26.1 °F - 21.9 °F 84% 29.84 in 10.0 mi Calm Calm - N/A   Clear
6:53 AM 30.0 °F - 23.0 °F 75% 29.82 in 10.0 mi Calm Calm - N/A   Partly Cloudy
7:53 AM 37.0 °F - 25.0 °F 62% 29.80 in 10.0 mi Calm Calm - N/A   Clear
8:53 AM 44.1 °F 40.8 °F 25.0 °F 47% 29.78 in 10.0 mi West 5.8 mph - N/A   Clear
9:53 AM 51.1 °F - 21.9 °F 32% 29.78 in 10.0 mi Variable 4.6 mph - N/A   Mostly Cloudy
10:53 AM 51.1 °F - 19.9 °F 29% 29.79 in 10.0 mi Calm Calm - N/A   Overcast
11:53 AM 54.0 °F - 17.1 °F 23% 29.77 in 10.0 mi South 8.1 mph - N/A   Mostly Cloudy
12:53 PM 55.0 °F - 17.1 °F 23% 29.75 in 10.0 mi Variable 6.9 mph 17.3 mph N/A   Scattered Clouds
1:53 PM 57.0 °F - 16.0 °F 20% 29.74 in 10.0 mi Calm Calm - N/A   Mostly Cloudy
2:53 PM 59.0 °F - 15.1 °F 18% 29.73 in 10.0 mi WSW 13.8 mph 19.6 mph N/A   Mostly Cloudy
3:53 PM 57.0 °F - 15.1 °F 19% 29.75 in 10.0 mi South 16.1 mph 19.6 mph N/A   Mostly Cloudy
4:53 PM 60.1 °F - 16.0 °F 18% 29.70 in 10.0 mi WSW 11.5 mph 20.7 mph N/A   Partly Cloudy
5:53 PM 55.0 °F - 19.0 °F 24% 29.78 in 10.0 mi SW 17.3 mph 25.3 mph N/A   Mostly Cloudy
6:32 PM 51.8 °F - 24.8 °F 35% 30.12 in 10.0 mi SSE 15.0 mph 26.5 mph N/A   Overcast
6:53 PM 53.1 °F - 26.1 °F 35% 29.78 in 10.0 mi SE 10.4 mph 19.6 mph N/A   Scattered Clouds
7:53 PM 52.0 °F - 24.1 °F 34% 29.76 in 10.0 mi SSW 3.5 mph - N/A   Clear
8:53 PM 48.0 °F - 28.0 °F 46% 29.77 in 10.0 mi SSE 5.8 mph - N/A   Overcast
9:53 PM 45.0 °F 42.6 °F 28.9 °F 53% 29.78 in 10.0 mi South 4.6 mph - N/A   Mostly Cloudy
10:53 PM 44.1 °F 41.5 °F 28.0 °F 53% 29.79 in 10.0 mi South 4.6 mph - N/A   Clear
11:53 PM 41.0 °F - 28.9 °F 62% 29.79 in 10.0 mi Calm Calm - N/A   Partly Cloudy